sat.trackr.live / text

‹ back to catalog

STARLINK-1502

NORAD 45764 · 2020-038AL

PAYLOAD ACTIVE UNKNOWN

§ Identity

Operator
Country
US
Launch date
2020-06-13
Launch site
AFETR
Launch vehicle
Mass (kg)
RCS (m²)

Purposes: comms

External: N2YO · Heavens-Above · Gunter

§ Orbital elements

Epoch: 2026-05-25T03:04:33.618432Z

Period
92.35 min
Inclination
53.0475°
Eccentricity
0.0007857
Mean motion
15.59226019 rev/d
Perigee alt
384.6 km
Apogee alt
395.2 km
Semi-major
6,768.0 km
B*
2.0963e-3
RAAN
197.4567°
Arg perigee
308.8486°
Mean anomaly
51.1824°
Rev number
32,851

§ Raw data

STARLINK-15021 45764U 20038AL  26145.12816688  .00170831  00000+0  20963-2 0  99982 45764  53.0475 197.4567 0007857 308.8486  51.1824 15.59226019328515

JSON: /api/v1/satellites/45764 · /tle

For live sub-satellite position, see the globe view (requires WebGL).

§ Visibility from observer

Set your observer location to see the next 7 days of passes ≥ 10°. The values pass through the URL so the page stays shareable.

No JS? Fill the form by hand. The geolocation button needs JavaScript.